Radiation Dose at Monitoring Post of Fukushima Daini Nuclear Power Station
Date,Time,MP-1(microSv/h),MP-2(microSv/h),MP-3(microSv/h),MP-4(microSv/h),MP-5(microSv/h),MP-6(microSv/h),MP-7(microSv/h),Wind Direction,Wind Velocity(m/s),Rain
2016/11/03,00:00,0.412,0.241,0.421,0.383,0.365,0.198,0.170,west,1.5,Yes
2016/11/03,00:10,0.413,0.240,0.424,0.386,0.367,0.199,0.170,west,1.0,Yes
2016/11/03,00:20,0.410,0.240,0.422,0.384,0.364,0.198,0.172,west-southwest,0.5,Yes
2016/11/03,00:30,0.411,0.242,0.421,0.386,0.366,0.200,0.171,west-northwest,0.6,Yes
2016/11/03,00:40,0.411,0.240,0.423,0.385,0.365,0.200,0.171,northwest,0.7,No
2016/11/03,00:50,0.412,0.239,0.422,0.384,0.365,0.199,0.171,south,0.8,No
2016/11/03,01:00,0.411,0.240,0.423,0.387,0.367,0.199,0.171,southwest,1.8,Yes
2016/11/03,01:10,0.412,0.241,0.424,0.385,0.365,0.200,0.171,south,1.9,Yes
2016/11/03,01:20,0.412,0.240,0.422,0.386,0.363,0.199,0.171,south-southwest,2.9,Yes
2016/11/03,01:30,0.414,0.241,0.425,0.386,0.367,0.200,0.172,southwest,3.3,Yes
2016/11/03,01:40,0.412,0.241,0.423,0.385,0.364,0.198,0.172,southwest,2.9,Yes
2016/11/03,01:50,0.411,0.241,0.421,0.386,0.368,0.199,0.171,south,1.4,Yes
2016/11/03,02:00,0.413,0.240,0.423,0.387,0.366,0.200,0.171,south-southwest,1.4,No
2016/11/03,02:10,0.413,0.242,0.421,0.384,0.365,0.199,0.171,southeast,1.7,No
2016/11/03,02:20,0.410,0.241,0.423,0.385,0.365,0.199,0.171,southeast,1.6,No
2016/11/03,02:30,0.413,0.240,0.424,0.384,0.366,0.198,0.171,east-northeast,1.5,No
2016/11/03,02:40,0.411,0.241,0.421,0.384,0.365,0.198,0.171,-,CALM,No
2016/11/03,02:50,0.411,0.241,0.422,0.386,0.366,0.199,0.170,west,1.3,No
2016/11/03,03:00,0.412,0.240,0.422,0.385,0.365,0.200,0.171,west-northwest,1.3,No
2016/11/03,03:10,0.410,0.239,0.420,0.384,0.363,0.198,0.170,west,1.1,No
2016/11/03,03:20,0.410,0.240,0.422,0.386,0.367,0.199,0.170,west-southwest,1.8,No
2016/11/03,03:30,0.412,0.239,0.420,0.383,0.364,0.198,0.169,west-southwest,1.5,No
2016/11/03,03:40,0.410,0.240,0.422,0.385,0.365,0.198,0.170,west,1.8,No
2016/11/03,03:50,0.412,0.240,0.425,0.386,0.367,0.199,0.170,west,3.3,Yes
2016/11/03,04:00,0.411,0.241,0.421,0.384,0.364,0.200,0.170,west-southwest,4.2,Yes
2016/11/03,04:10,0.410,0.242,0.423,0.387,0.367,0.199,0.171,southwest,4.2,Yes
2016/11/03,04:20,0.414,0.241,0.424,0.386,0.365,0.201,0.172,southwest,3.9,No
2016/11/03,04:30,0.411,0.241,0.421,0.383,0.364,0.199,0.172,southwest,3.3,No
2016/11/03,04:40,0.410,0.240,0.423,0.386,0.366,0.199,0.170,southwest,4.0,No
2016/11/03,04:50,0.412,0.240,0.420,0.384,0.364,0.199,0.170,southwest,3.3,No
2016/11/03,05:00,0.411,0.241,0.420,0.385,0.364,0.198,0.170,southwest,3.3,No
2016/11/03,05:10,0.412,0.239,0.421,0.384,0.366,0.198,0.172,southwest,3.1,No
2016/11/03,05:20,0.412,0.240,0.422,0.382,0.363,0.198,0.170,south-southwest,3.1,No
2016/11/03,05:30,0.410,0.239,0.422,0.385,0.366,0.198,0.170,south-southwest,3.6,No
2016/11/03,05:40,0.410,0.239,0.422,0.383,0.364,0.198,0.169,southwest,3.1,No
2016/11/03,05:50,0.413,0.239,0.420,0.384,0.365,0.198,0.170,southwest,3.1,No
2016/11/03,06:00,0.410,0.239,0.421,0.385,0.365,0.198,0.169,southwest,3.1,No
2016/11/03,06:10,0.410,0.239,0.423,0.384,0.365,0.198,0.171,southwest,3.2,No
2016/11/03,06:20,0.411,0.237,0.419,0.383,0.363,0.198,0.169,southwest,2.8,No
2016/11/03,06:30,0.411,0.239,0.423,0.384,0.366,0.198,0.168,west-southwest,1.9,No
2016/11/03,06:40,0.410,0.239,0.422,0.383,0.364,0.198,0.170,west-southwest,2.0,No
2016/11/03,06:50,0.408,0.238,0.420,0.382,0.363,0.198,0.169,west-southwest,2.9,No
2016/11/03,07:00,0.412,0.239,0.422,0.384,0.365,0.198,0.168,west-southwest,2.7,No
2016/11/03,07:10,0.410,0.240,0.420,0.383,0.364,0.198,0.169,west,1.7,No
2016/11/03,07:20,0.411,0.239,0.420,0.383,0.364,0.197,0.168,west-northwest,2.1,No
2016/11/03,07:30,0.410,0.239,0.422,0.383,0.365,0.197,0.169,west-southwest,1.9,No
2016/11/03,07:40,0.409,0.239,0.420,0.383,0.362,0.198,0.169,west-northwest,1.5,No
2016/11/03,07:50,0.410,0.239,0.419,0.383,0.366,0.198,0.168,west-northwest,1.6,No
2016/11/03,08:00,0.411,0.239,0.422,0.381,0.364,0.198,0.169,west,1.4,No
2016/11/03,08:10,0.408,0.238,0.420,0.385,0.363,0.197,0.167,north-northwest,1.0,No
2016/11/03,08:20,0.410,0.239,0.421,0.381,0.363,0.198,0.170,west-northwest,0.6,No
2016/11/03,08:30,0.409,0.240,0.421,0.384,0.362,0.198,0.169,north,1.4,No
2016/11/03,08:40,0.410,0.238,0.418,0.382,0.365,0.199,0.169,north-northeast,0.5,No
2016/11/03,08:50,0.410,0.239,0.421,0.383,0.363,0.197,0.169,north-northeast,1.1,No
2016/11/03,09:00,0.408,0.238,0.420,0.382,0.362,0.198,0.170,northeast,1.1,No
2016/11/03,09:10,0.411,0.239,0.421,0.384,0.364,0.198,0.169,north-northeast,1.2,No
2016/11/03,09:20,0.410,0.239,0.420,0.380,0.361,0.198,0.170,east-northeast,1.0,No
2016/11/03,09:30,0.409,0.240,0.421,0.385,0.365,0.198,0.169,-,CALM,No
2016/11/03,09:40,0.407,0.238,0.423,0.380,0.363,0.197,0.169,northeast,1.0,No
2016/11/03,09:50,0.408,0.239,0.420,0.383,0.362,0.199,0.169,north,0.9,No
2016/11/03,10:00,0.406,0.236,0.422,0.381,0.361,0.198,0.169,north-northwest,1.4,No
2016/11/03,10:10,0.410,0.237,0.420,0.384,0.363,0.198,0.168,west-northwest,2.2,No
2016/11/03,10:20,0.406,0.238,0.421,0.384,0.363,0.197,0.170,west-northwest,3.1,No
2016/11/03,10:30,0.407,0.237,0.421,0.380,0.362,0.197,0.169,northwest,5.1,No
2016/11/03,10:40,0.409,0.239,0.420,0.383,0.362,0.198,0.170,west-northwest,8.8,No
2016/11/03,10:50,0.409,0.238,0.420,0.382,0.364,0.198,0.171,northwest,8.1,No
2016/11/03,11:00,0.413,0.239,0.420,0.379,0.361,0.198,0.169,northwest,6.7,No
2016/11/03,11:10,0.410,0.239,0.420,0.383,0.367,0.198,0.171,west-northwest,3.9,No
2016/11/03,11:20,0.409,0.240,0.419,0.382,0.363,0.199,0.169,west-northwest,6.1,No
2016/11/03,11:30,0.411,0.239,0.423,0.381,0.362,0.199,0.171,west-northwest,8.2,No
2016/11/03,11:40,0.407,0.237,0.420,0.384,0.366,0.198,0.171,west-northwest,6.7,No
2016/11/03,11:50,0.411,0.240,0.420,0.384,0.363,0.198,0.170,northwest,5.7,No
2016/11/03,12:00,0.410,0.239,0.419,0.380,0.362,0.198,0.168,west-northwest,4.2,No
2016/11/03,12:10,0.412,0.238,0.417,0.380,0.365,0.198,0.170,west-northwest,9.9,No
2016/11/03,12:20,0.412,0.240,0.422,0.385,0.362,0.199,0.170,west-northwest,9.8,No
2016/11/03,12:30,0.412,0.238,0.417,0.384,0.363,0.197,0.169,west-northwest,8.6,No
2016/11/03,12:40,0.412,0.240,0.420,0.380,0.365,0.200,0.171,west-northwest,10.1,No
2016/11/03,12:50,0.412,0.238,0.420,0.385,0.363,0.198,0.168,northwest,9.3,No
2016/11/03,13:00,0.412,0.240,0.417,0.383,0.366,0.199,0.170,west-northwest,9.8,No
2016/11/03,13:10,0.411,0.240,0.421,0.381,0.362,0.198,0.171,northwest,10.1,No
2016/11/03,13:20,0.409,0.239,0.420,0.385,0.365,0.199,0.169,west-northwest,10.5,No
2016/11/03,13:30,0.411,0.240,0.420,0.384,0.364,0.199,0.170,northwest,8.5,No
2016/11/03,13:40,0.411,0.238,0.423,0.382,0.363,0.199,0.170,west-northwest,8.3,No
2016/11/03,13:50,0.413,0.240,0.421,0.384,0.366,0.199,0.169,northwest,10.5,No
2016/11/03,14:00,0.412,0.238,0.425,0.383,0.364,0.199,0.170,northwest,7.8,No
2016/11/03,14:10,0.415,0.241,0.423,0.387,0.365,0.199,0.171,northwest,8.6,No
2016/11/03,14:20,0.413,0.238,0.423,0.385,0.367,0.197,0.170,north-northwest,8.7,No
2016/11/03,14:30,0.414,0.241,0.425,0.388,0.365,0.199,0.171,north-northwest,7.0,No
2016/11/03,14:40,0.412,0.240,0.422,0.385,0.368,0.199,0.171,northwest,7.8,No
2016/11/03,14:50,0.411,0.240,0.425,0.386,0.365,0.198,0.170,northwest,8.1,No
2016/11/03,15:00,0.412,0.239,0.423,0.384,0.366,0.199,0.170,northwest,4.1,No
2016/11/03,15:10,0.412,0.239,0.425,0.388,0.364,0.199,0.171,west-northwest,7.0,No
2016/11/03,15:20,0.410,0.241,0.422,0.385,0.364,0.199,0.172,northwest,7.7,No
2016/11/03,15:30,0.413,0.240,0.426,0.388,0.366,0.199,0.172,northwest,6.9,No
2016/11/03,15:40,0.411,0.240,0.423,0.387,0.365,0.199,0.170,northwest,5.3,No
2016/11/03,15:50,0.414,0.239,0.420,0.386,0.368,0.199,0.171,west-northwest,5.9,No
2016/11/03,16:00,0.413,0.240,0.424,0.386,0.364,0.198,0.170,west-northwest,5.8,No
2016/11/03,16:10,0.412,0.241,0.422,0.386,0.367,0.199,0.170,northwest,6.5,No
2016/11/03,16:20,0.417,0.240,0.424,0.387,0.366,0.199,0.170,west-northwest,4.9,No
2016/11/03,16:30,0.413,0.240,0.423,0.385,0.366,0.198,0.169,west-northwest,5.7,No
2016/11/03,16:40,0.414,0.242,0.421,0.388,0.369,0.199,0.172,west-northwest,4.7,No
2016/11/03,16:50,0.412,0.239,0.426,0.386,0.367,0.199,0.170,west-northwest,4.9,No
2016/11/03,17:00,0.412,0.241,0.423,0.385,0.365,0.198,0.170,west-northwest,4.6,No
2016/11/03,17:10,0.416,0.240,0.426,0.386,0.368,0.198,0.172,west-northwest,3.7,No
2016/11/03,17:20,0.411,0.239,0.422,0.387,0.366,0.199,0.172,west,3.6,No
2016/11/03,17:30,0.413,0.240,0.422,0.387,0.367,0.200,0.171,west-northwest,4.2,No
2016/11/03,17:40,0.414,0.240,0.425,0.386,0.365,0.200,0.172,northwest,5.3,No
2016/11/03,17:50,0.412,0.240,0.423,0.387,0.364,0.199,0.171,northwest,3.3,No
2016/11/03,18:00,0.412,0.240,0.424,0.387,0.366,0.199,0.171,north-northwest,3.2,No
2016/11/03,18:10,0.411,0.239,0.422,0.385,0.368,0.199,0.171,north-northwest,3.0,No
2016/11/03,18:20,0.413,0.241,0.422,0.385,0.364,0.199,0.171,north-northwest,3.6,No
2016/11/03,18:30,0.414,0.241,0.424,0.388,0.365,0.199,0.171,northwest,5.0,No
2016/11/03,18:40,0.412,0.239,0.423,0.385,0.366,0.199,0.172,north-northwest,4.4,No
2016/11/03,18:50,0.414,0.240,0.422,0.386,0.365,0.199,0.171,northwest,3.6,No
2016/11/03,19:00,0.412,0.240,0.423,0.387,0.367,0.200,0.171,northwest,5.0,No
2016/11/03,19:10,0.411,0.239,0.421,0.385,0.366,0.199,0.171,north-northwest,3.3,No
2016/11/03,19:20,0.413,0.240,0.422,0.387,0.366,0.199,0.171,north-northwest,3.1,No
2016/11/03,19:30,0.412,0.241,0.425,0.386,0.366,0.199,0.171,northwest,5.2,No
2016/11/03,19:40,0.411,0.239,0.423,0.386,0.366,0.198,0.172,northwest,4.3,No
2016/11/03,19:50,0.413,0.239,0.426,0.387,0.366,0.199,0.172,northwest,5.2,No
2016/11/03,20:00,0.413,0.241,0.423,0.385,0.367,0.199,0.171,west-northwest,5.5,No
2016/11/03,20:10,0.412,0.239,0.421,0.386,0.364,0.199,0.172,west-northwest,3.3,No
2016/11/03,20:20,0.412,0.239,0.425,0.386,0.365,0.199,0.172,west-northwest,3.6,No
2016/11/03,20:30,0.413,0.240,0.423,0.386,0.365,0.199,0.171,west,2.4,No
2016/11/03,20:40,0.413,0.240,0.421,0.388,0.365,0.200,0.172,west,2.2,No
2016/11/03,20:50,0.414,0.240,0.423,0.386,0.365,0.200,0.171,west-southwest,3.1,No
2016/11/03,21:00,0.412,0.240,0.423,0.386,0.368,0.199,0.171,west-southwest,3.5,No
2016/11/03,21:10,0.414,0.240,0.424,0.388,0.363,0.200,0.171,west-northwest,1.3,No
2016/11/03,21:20,0.412,0.239,0.423,0.385,0.365,0.199,0.171,west,0.6,No
2016/11/03,21:30,0.412,0.239,0.423,0.386,0.367,0.200,0.172,west-northwest,1.3,No
2016/11/03,21:40,0.412,0.240,0.424,0.386,0.364,0.198,0.173,west,0.8,No
2016/11/03,21:50,0.413,0.240,0.424,0.386,0.366,0.200,0.170,north-northwest,0.6,No
2016/11/03,22:00,0.413,0.239,0.424,0.388,0.369,0.200,0.172,south,1.4,No
2016/11/03,22:10,0.414,0.239,0.424,0.386,0.364,0.199,0.171,south-southwest,2.4,No
2016/11/03,22:20,0.414,0.240,0.422,0.386,0.366,0.199,0.171,south-southwest,1.1,No
2016/11/03,22:30,0.414,0.240,0.424,0.387,0.368,0.201,0.171,south,0.7,No
2016/11/03,22:40,0.413,0.240,0.423,0.387,0.365,0.199,0.171,south-southwest,0.5,No
2016/11/03,22:50,0.412,0.240,0.423,0.386,0.365,0.200,0.171,southwest,0.9,No
2016/11/03,23:00,0.414,0.239,0.426,0.388,0.367,0.200,0.172,south-southeast,1.3,No
2016/11/03,23:10,0.414,0.241,0.424,0.386,0.365,0.200,0.171,south,0.7,No
2016/11/03,23:20,0.413,0.240,0.422,0.389,0.367,0.199,0.171,south,1.6,No
2016/11/03,23:30,0.411,0.240,0.424,0.386,0.366,0.199,0.171,south-southwest,1.0,No
2016/11/03,23:40,0.414,0.239,0.424,0.385,0.366,0.199,0.172,southwest,0.8,No
2016/11/03,23:50,0.413,0.240,0.424,0.388,0.365,0.198,0.172,-,CALM,No
